Location: Unspecified
(42.3650°N, 71.1030°W)
Time: 01:35:55
(UTC+00:00)

Explorer 11/Cluster Stage 4 - Visible Passes

Search period start: 13 June 2024 00:00
Search period end: 23 June 2024 00:00
Orbit: 465 x 1217 km, 28.8° (Epoch: 12 June)

Date Brightness Start Highest point End Pass type
(mag) Time Alt. Az. Time Alt. Az. Time Alt. Az.
13 Jun 7.8 08:02:30 12° SSW 08:03:18 12° S 08:05:00 10° SSE visible
14 Jun 7.9 07:46:01 13° S 07:46:01 13° S 07:47:40 10° SSE visible
15 Jun 8.1 07:29:41 12° S 07:29:41 12° S 07:30:18 10° SSE visible
18 Jun 9.1 02:55:16 10° SSW 02:55:47 11° SSW 02:55:47 11° SSW visible
19 Jun 8.9 00:53:05 10° SSE 00:54:42 11° SSE 00:56:17 10° SE visible
19 Jun 8.6 02:36:59 10° SSW 02:40:25 19° S 02:40:25 19° S visible
20 Jun 8.3 02:18:44 10° SW 02:24:23 22° S 02:24:44 22° SSE visible
20 Jun 9.3 04:06:21 10° SW 04:06:27 10° SW 04:06:27 10° SW visible
21 Jun 8.3 02:00:31 10° SW 02:06:27 24° S 02:08:43 20° SE visible
21 Jun 8.8 03:48:14 10° WSW 03:50:25 17° SW 03:50:25 17° SW visible
22 Jun 8.3 01:42:21 10° SW 01:48:30 25° S 01:52:25 16° SE visible
22 Jun 8.4 03:30:07 10° WSW 03:34:06 23° SSW 03:34:06 23° SSW visible
